AAL256 KDCA-KLGA

Flight info

Callsign AAL256
Flight time 0h 36m
Altitude 25000
Route DOCTR5 AGARD SPEAK PROUD2
Aircraft A319/M-SDE3FGHIRWY/LB1

Departure

Time 2026-05-07 21:12
Airport Ronald Reagan Washington National Airport (KDCA)

Arrival

Time 2026-05-07 21:48
Airport LaGuardia Airport (KLGA)
Time Latitude Longitude Altitude Speed Heading
2026-05-07 20:29 38.85559 -77.04219 24 ft 0 kts 337°
2026-05-07 20:59 38.85542 -77.04211 26 ft 3 kts 346°
2026-05-07 21:00 38.85521 -77.04208 24 ft 3 kts 16°
2026-05-07 21:00 38.85505 -77.04221 26 ft 3 kts 70°
2026-05-07 21:00 38.85504 -77.04224 26 ft 0 kts 72°
2026-05-07 21:04 38.85505 -77.04220 26 ft 1 kts 72°
2026-05-07 21:05 38.85510 -77.04199 25 ft 4 kts 72°
2026-05-07 21:05 38.85520 -77.04160 24 ft 6 kts 72°
2026-05-07 21:05 38.85534 -77.04103 24 ft 8 kts 72°
2026-05-07 21:05 38.85552 -77.04027 24 ft 10 kts 73°
2026-05-07 21:06 38.85592 -77.03961 25 ft 11 kts
2026-05-07 21:06 38.85668 -77.03967 25 ft 11 kts 356°
2026-05-07 21:06 38.85739 -77.03973 26 ft 10 kts 356°
2026-05-07 21:06 38.85809 -77.03983 27 ft 10 kts 353°
2026-05-07 21:07 38.85886 -77.03989 25 ft 12 kts 359°
2026-05-07 21:07 38.85968 -77.03972 24 ft 12 kts 15°
2026-05-07 21:07 38.86009 -77.03956 24 ft 0 kts 19°
2026-05-07 21:08 38.86009 -77.03955 24 ft 0 kts 19°
2026-05-07 21:09 38.86010 -77.03955 24 ft 1 kts 19°
2026-05-07 21:10 38.86029 -77.03947 25 ft 4 kts 19°
2026-05-07 21:10 38.86069 -77.03930 24 ft 8 kts 24°
2026-05-07 21:10 38.86096 -77.03878 23 ft 7 kts 114°
2026-05-07 21:10 38.86074 -77.03868 23 ft 0 kts 175°
2026-05-07 21:11 38.86059 -77.03867 23 ft 8 kts 175°
2026-05-07 21:11 38.85750 -77.03833 26 ft 82 kts 175°
2026-05-07 21:11 38.83920 -77.03675 495 ft 149 kts 176°
2026-05-07 21:12 38.82903 -77.03510 1189 ft 148 kts 172°
2026-05-07 21:12 38.81876 -77.03287 1792 ft 151 kts 173°
2026-05-07 21:12 38.80830 -77.03043 2404 ft 153 kts 173°
2026-05-07 21:12 38.79777 -77.02804 2989 ft 154 kts 172°
2026-05-07 21:13 38.78677 -77.02562 3443 ft 167 kts 172°
2026-05-07 21:13 38.77458 -77.02297 3736 ft 189 kts 172°
2026-05-07 21:13 38.76106 -77.01853 4011 ft 214 kts 152°
2026-05-07 21:13 38.75093 -77.00355 4244 ft 238 kts 109°
2026-05-07 21:14 38.74791 -76.98179 4601 ft 261 kts 90°
2026-05-07 21:14 38.74789 -76.96609 4991 ft 271 kts 83°
2026-05-07 21:14 38.75245 -76.94264 5808 ft 274 kts 63°
2026-05-07 21:14 38.76182 -76.92133 6668 ft 277 kts 50°
2026-05-07 21:15 38.77463 -76.90255 7408 ft 283 kts 37°
2026-05-07 21:15 38.79069 -76.88768 8124 ft 289 kts 26°
2026-05-07 21:15 38.80814 -76.87396 8846 ft 299 kts 25°
2026-05-07 21:15 38.82618 -76.85986 9567 ft 309 kts 25°
2026-05-07 21:16 38.84467 -76.84483 10203 ft 326 kts 30°
2026-05-07 21:16 38.86211 -76.82433 10521 ft 357 kts 45°
2026-05-07 21:16 38.87648 -76.79699 10887 ft 380 kts 62°
2026-05-07 21:16 38.88781 -76.76594 11554 ft 388 kts 64°
2026-05-07 21:17 38.89949 -76.73431 12248 ft 395 kts 63°
2026-05-07 21:17 38.91151 -76.70221 12936 ft 402 kts 63°
2026-05-07 21:17 38.92394 -76.66927 13648 ft 408 kts 63°
2026-05-07 21:17 38.93644 -76.63621 14281 ft 413 kts 63°
2026-05-07 21:18 38.94893 -76.60278 14920 ft 418 kts 64°
2026-05-07 21:18 38.96083 -76.56853 15567 ft 422 kts 66°
2026-05-07 21:18 38.97227 -76.53353 16219 ft 426 kts 66°
2026-05-07 21:18 38.98347 -76.49809 16849 ft 430 kts 67°
2026-05-07 21:19 38.99475 -76.46222 17450 ft 435 kts 67°
2026-05-07 21:19 39.00556 -76.42578 18076 ft 440 kts 72°
2026-05-07 21:19 39.01248 -76.38735 18658 ft 444 kts 83°
2026-05-07 21:19 39.01636 -76.34777 19180 ft 448 kts 84°
2026-05-07 21:20 39.02027 -76.30776 19705 ft 453 kts 84°
2026-05-07 21:20 39.02423 -76.26733 20204 ft 458 kts 84°
2026-05-07 21:20 39.02823 -76.22645 20705 ft 464 kts 84°
2026-05-07 21:20 39.03227 -76.18503 21199 ft 469 kts 84°
2026-05-07 21:21 39.03636 -76.14327 21661 ft 474 kts 84°
2026-05-07 21:21 39.04046 -76.10092 22081 ft 481 kts 85°
2026-05-07 21:21 39.04443 -76.05802 22527 ft 486 kts 86°
2026-05-07 21:21 39.04747 -76.01447 22987 ft 491 kts 89°
2026-05-07 21:22 39.04959 -75.97045 23437 ft 495 kts 90°
2026-05-07 21:22 39.05114 -75.92606 23817 ft 499 kts 91°
2026-05-07 21:22 39.05252 -75.88125 24190 ft 503 kts 91°
2026-05-07 21:22 39.05400 -75.83611 24556 ft 508 kts 91°
2026-05-07 21:23 39.05750 -75.79063 24813 ft 515 kts 79°
2026-05-07 21:23 39.06898 -75.74693 24863 ft 517 kts 61°
2026-05-07 21:23 39.08909 -75.70916 24879 ft 509 kts 45°
2026-05-07 21:23 39.11327 -75.67611 24877 ft 505 kts 38°
2026-05-07 21:24 39.13865 -75.64413 24917 ft 505 kts 40°
2026-05-07 21:24 39.16293 -75.61153 24868 ft 504 kts 41°
2026-05-07 21:24 39.18666 -75.57837 24870 ft 503 kts 42°
2026-05-07 21:24 39.21033 -75.54510 24870 ft 503 kts 42°
2026-05-07 21:25 39.23515 -75.51376 24865 ft 496 kts 33°
2026-05-07 21:25 39.26270 -75.48787 24871 ft 489 kts 26°
2026-05-07 21:25 39.29093 -75.46316 24871 ft 489 kts 26°
2026-05-07 21:25 39.31901 -75.43848 24876 ft 489 kts 26°
2026-05-07 21:26 39.34712 -75.41365 24782 ft 487 kts 27°
2026-05-07 21:26 39.37488 -75.38899 24539 ft 482 kts 27°
2026-05-07 21:26 39.40245 -75.36443 24009 ft 481 kts 27°
2026-05-07 21:26 39.42994 -75.33991 23432 ft 480 kts 27°
2026-05-07 21:27 39.45742 -75.31534 22823 ft 478 kts 28°
2026-05-07 21:27 39.48470 -75.29093 22275 ft 475 kts 28°
2026-05-07 21:27 39.51173 -75.26675 21739 ft 472 kts 28°
2026-05-07 21:27 39.53851 -75.24235 21261 ft 469 kts 29°
2026-05-07 21:28 39.56497 -75.21767 20726 ft 467 kts 30°
2026-05-07 21:28 39.59102 -75.19298 20219 ft 463 kts 30°
2026-05-07 21:28 39.61688 -75.16835 19823 ft 458 kts 30°
2026-05-07 21:28 39.64256 -75.14401 19323 ft 455 kts 30°
2026-05-07 21:29 39.66799 -75.11998 18941 ft 449 kts 30°
2026-05-07 21:29 39.69362 -75.09622 18476 ft 445 kts 29°
2026-05-07 21:29 39.71910 -75.07375 18037 ft 440 kts 28°
2026-05-07 21:29 39.74428 -75.05235 17484 ft 436 kts 27°
2026-05-07 21:30 39.77006 -75.03079 16914 ft 435 kts 27°
2026-05-07 21:30 39.79540 -75.00955 16341 ft 433 kts 27°
2026-05-07 21:30 39.82047 -74.98833 15932 ft 427 kts 27°
2026-05-07 21:30 39.84512 -74.96720 15515 ft 422 kts 28°
2026-05-07 21:31 39.86943 -74.94598 15062 ft 419 kts 28°
2026-05-07 21:31 39.89323 -74.92454 14606 ft 415 kts 30°
2026-05-07 21:31 39.91669 -74.90257 14167 ft 414 kts 34°
2026-05-07 21:31 39.93725 -74.87620 13704 ft 416 kts 45°
2026-05-07 21:32 39.95639 -74.84812 13213 ft 412 kts 45°
2026-05-07 21:32 39.97542 -74.82065 12892 ft 403 kts 44°
2026-05-07 21:32 39.99399 -74.79407 12757 ft 389 kts 44°
2026-05-07 21:32 40.01194 -74.76847 12625 ft 377 kts 43°
2026-05-07 21:33 40.02938 -74.74361 12498 ft 365 kts 43°
2026-05-07 21:33 40.04630 -74.71944 12334 ft 356 kts 43°
2026-05-07 21:33 40.06287 -74.69574 12029 ft 352 kts 43°
2026-05-07 21:33 40.07927 -74.67225 11726 ft 348 kts 43°
2026-05-07 21:34 40.09551 -74.64895 11398 ft 345 kts 43°
2026-05-07 21:34 40.11154 -74.62594 11088 ft 341 kts 43°
2026-05-07 21:34 40.12741 -74.60313 10778 ft 338 kts 43°
2026-05-07 21:34 40.14316 -74.58045 10450 ft 335 kts 42°
2026-05-07 21:35 40.15872 -74.55802 10142 ft 332 kts 42°
2026-05-07 21:35 40.17405 -74.53584 10002 ft 325 kts 42°
2026-05-07 21:35 40.18917 -74.51400 10002 ft 324 kts 42°
2026-05-07 21:35 40.20438 -74.49217 9627 ft 324 kts 41°
2026-05-07 21:36 40.22006 -74.47122 9264 ft 320 kts 39°
2026-05-07 21:36 40.23616 -74.45085 8924 ft 315 kts 38°
2026-05-07 21:36 40.25175 -74.43155 8602 ft 310 kts 38°
2026-05-07 21:36 40.26751 -74.41208 8297 ft 305 kts 38°
2026-05-07 21:37 40.28271 -74.39320 8119 ft 298 kts 39°
2026-05-07 21:37 40.29761 -74.37458 7990 ft 294 kts 40°
2026-05-07 21:37 40.31230 -74.35612 7861 ft 291 kts 40°
2026-05-07 21:37 40.32692 -74.33767 7721 ft 292 kts 40°
2026-05-07 21:38 40.34148 -74.31920 7580 ft 291 kts 40°
2026-05-07 21:38 40.35598 -74.30078 7441 ft 289 kts 40°
2026-05-07 21:38 40.37037 -74.28254 7301 ft 287 kts 40°
2026-05-07 21:38 40.38468 -74.26442 7169 ft 285 kts 41°
2026-05-07 21:39 40.39893 -74.24633 7045 ft 284 kts 41°
2026-05-07 21:39 40.41305 -74.22839 6910 ft 282 kts 41°
2026-05-07 21:39 40.42711 -74.21049 6790 ft 281 kts 41°
2026-05-07 21:39 40.44107 -74.19274 6664 ft 279 kts 41°
2026-05-07 21:40 40.45498 -74.17506 6539 ft 277 kts 41°
2026-05-07 21:40 40.46878 -74.15749 6417 ft 276 kts 41°
2026-05-07 21:40 40.48253 -74.13998 6299 ft 275 kts 42°
2026-05-07 21:40 40.49620 -74.12255 6165 ft 273 kts 41°
2026-05-07 21:41 40.50979 -74.10519 5950 ft 273 kts 41°
2026-05-07 21:41 40.52419 -74.08919 5571 ft 269 kts 31°
2026-05-07 21:41 40.53984 -74.07601 5174 ft 267 kts 30°
2026-05-07 21:41 40.55538 -74.06289 4884 ft 261 kts 31°
2026-05-07 21:42 40.57026 -74.05025 4758 ft 248 kts 30°
2026-05-07 21:42 40.58460 -74.03805 4633 ft 236 kts 31°
2026-05-07 21:42 40.59809 -74.02657 4444 ft 228 kts 30°
2026-05-07 21:42 40.61161 -74.01509 3837 ft 235 kts 30°
2026-05-07 21:43 40.62536 -74.00343 3426 ft 231 kts 30°
2026-05-07 21:43 40.63845 -73.99231 3260 ft 216 kts 30°
2026-05-07 21:43 40.65064 -73.98193 3158 ft 200 kts 30°
2026-05-07 21:43 40.66196 -73.97226 3105 ft 191 kts 29°
2026-05-07 21:44 40.67292 -73.96280 2997 ft 187 kts 30°
2026-05-07 21:44 40.68376 -73.95343 2902 ft 186 kts 30°
2026-05-07 21:44 40.69440 -73.94413 2817 ft 180 kts 32°
2026-05-07 21:44 40.70333 -73.93255 2644 ft 180 kts 43°
2026-05-07 21:45 40.71182 -73.92051 2400 ft 177 kts 43°
2026-05-07 21:45 40.71880 -73.90711 2151 ft 181 kts 62°
2026-05-07 21:45 40.72212 -73.89118 1898 ft 174 kts 75°
2026-05-07 21:45 40.72462 -73.87643 1642 ft 157 kts 74°
2026-05-07 21:46 40.72693 -73.86293 1411 ft 146 kts 73°
2026-05-07 21:46 40.73078 -73.85107 1206 ft 138 kts 52°
2026-05-07 21:46 40.73726 -73.84221 998 ft 133 kts 32°
2026-05-07 21:46 40.74529 -73.83650 805 ft 130 kts 15°
2026-05-07 21:47 40.75402 -73.83494 621 ft 126 kts 354°
2026-05-07 21:47 40.75979 -73.83649 494 ft 127 kts 339°
2026-05-07 21:47 40.76599 -73.84442 299 ft 127 kts 298°
2026-05-07 21:47 40.77055 -73.85414 94 ft 124 kts 304°
2026-05-07 21:48 40.77499 -73.86329 15 ft 105 kts 303°
2026-05-07 21:48 40.77773 -73.86897 14 ft 59 kts 302°
2026-05-07 21:48 40.77917 -73.87210 14 ft 11 kts 289°
2026-05-07 21:48 40.77906 -73.87290 16 ft 4 kts 247°
2026-05-07 21:49 40.77906 -73.87292 16 ft 0 kts 246°
2026-05-07 21:49 40.77899 -73.87312 14 ft 5 kts 246°
2026-05-07 21:49 40.77881 -73.87362 14 ft 6 kts 238°
2026-05-07 21:49 40.77840 -73.87399 15 ft 8 kts 204°
2026-05-07 21:50 40.77786 -73.87394 14 ft 7 kts 169°
2026-05-07 21:50 40.77773 -73.87356 15 ft 6 kts 90°
2026-05-07 21:50 40.77770 -73.87287 15 ft 9 kts 105°
2026-05-07 21:50 40.77738 -73.87262 18 ft 2 kts 180°
2026-05-07 21:51 40.77726 -73.87269 19 ft 3 kts 203°
2026-05-07 21:51 40.77701 -73.87267 19 ft 5 kts 149°
2026-05-07 21:51 40.77694 -73.87222 19 ft 7 kts 44°
2026-05-07 21:51 40.77709 -73.87132 15 ft 14 kts 117°
2026-05-07 21:52 40.77655 -73.87018 14 ft 14 kts 123°
2026-05-07 21:52 40.77604 -73.86991 17 ft 6 kts 204°
2026-05-07 21:52 40.77589 -73.87009 19 ft 2 kts 234°
2026-05-07 21:52 40.77587 -73.87034 21 ft 5 kts 278°
2026-05-07 21:53 40.77610 -73.87081 19 ft 4 kts 302°
2026-05-07 21:53 40.77617 -73.87096 19 ft 0 kts 301°